Content
SEND FEEDBACK

Daily
Averages
Monthly
Summary
Canada

QUEBEC CITY, QUEBEC


Home > North America > Canada > Quebec
Elevation: 239 feet     Latitude: 46 48N     Longitude: 071 23W

WEATHER
 
SELECT A DAY
Number of Records: 196,145;   Date Range: 6/30/96 - 10/30/14
 
SHARE

PRINT THIS DATA

[ ← Previous Day ]
WEATHER ALMANAC - MARCH 19, 2013
[ Next Day → ]
[ °C ]   °F
Weather ElementAverageHighLow
Temperature20.5 °F22 °F (5:00 am)17.6 °F (1:00 am)
Dewpoint9.7 °F21 °F (11:00 pm) (7:00 pm)
Humidity74.7 %95 % (11:00 pm)38 % (8:00 am)
Wind Speed19.7 mph32.2 mph (11:14 am)
Wind Gust33.4 mph (5:00 am)
Weather ElementAverage
Visibility4.7 mi
Wind Direction (362.4 °)

Weather ElementTotal
Precipitation---
Heating Degree Days45.2 (Base 65)
Averaged from 46 records on March 19, 2013
WEATHER CONDITIONS BREAKOUT
WIND DIRECTION BREAKOUT
WEATHER BY HOUR - MARCH 19, 2013
[ °C ]   °F
Local TimeTemperatureDewpointHumidityBarometerVisibilityWind DirectionWind SpeedGust SpeedPrecipitationEventsConditions
1:00 AM17.6 °F5.0 °F58 %30.25 in15.0 miNE (50°)10.4 mphMostly Cloudy
2:00 AM20.0 °F9.0 °F48 %30.23 inENE (70°)8.1 mph
2:00 AM19.4 °F3.2 °F49 %30.23 in15.0 miENE (60°)11.5 mphMostly Cloudy
3:00 AM21.2 °F12.2 °F68 %30.20 in15.0 miENE (70°)18.4 mph29.9 mphMostly Cloudy
4:00 AM21.2 °F12.2 °F68 %30.19 in15.0 miENE (70°)19.6 mph27.6 mphOvercast
5:00 AM21.2 °F10.4 °F63 %30.17 in15.0 miENE (70°)20.7 mph33.4 mphMostly Cloudy
5:00 AM22.0 °F12.0 °F52 %30.16 inENE (70°)13.8 mph
6:00 AM21.2 °F6.8 °F54 %30.16 in15.0 miENE (60°)21.9 mph32.2 mphOvercast
7:00 AM21.2 °F6.8 °F54 %30.16 in20.0 miENE (60°)23.0 mph31.1 mphOvercast
8:00 AM22.0 °F7.0 °F38 %30.14 inENE (70°)17.3 mph
8:00 AM21.2 °F6.8 °F54 %30.14 in20.0 miENE (70°)23.0 mph29.9 mphOvercast
9:00 AM21.2 °F6.8 °F54 %30.12 in12.0 miEast (80°)18.4 mph24.2 mphOvercast
9:35 AM21.2 °F0.0 °F6.0 miENE (70°)19.6 mph27.6 mphSnowLight Snow
10:00 AM21.2 °F12.2 °F68 %30.12 in4.0 miEast (80°)18.4 mph31.1 mphSnowLight Snow
10:07 AM21.2 °F0.0 °F2.5 miENE (70°)18.4 mph31.1 mphSnowLight Snow
10:19 AM19.4 °F0.0 °F1.5 miEast (80°)19.6 mph31.1 mphSnowLight Snow
10:43 AM19.4 °F0.0 °F1.2 miENE (70°)15.0 mph28.8 mphSnowLight Snow
10:52 AM19.4 °F0.0 °F1.0 miENE (60°)24.2 mph29.9 mphSnowLight Snow
11:00 AM19.0 °F15.0 °F76 %30.10 inENE (70°)13.8 mph
11:00 AM19.4 °F14.0 °F80 %30.10 in0.8 miENE (70°)25.3 mph31.1 mphSnowLight Snow
11:14 AM19.4 °F0.0 °F0.0 mi20.7 (2013°)32.2 mph0.00 inLight Snow60
11:39 AM19.4 °F0.0 °F0.0 mi19.6 (2013°)32.2 mph0.00 inLight Snow60
12:00 PM19.4 °F15.8 °F86 %30.08 in0.5 miENE (60°)17.3 mph28.8 mphSnowLight Snow
12:18 PM19.4 °F0.0 °F0.0 mi24.2 (2013°)29.9 mph0.00 inLight Snow60
12:37 PM19.4 °F0.0 °F0.0 mi19.6 (2013°)29.9 mph0.00 inLight Snow60
1:00 PM19.4 °F15.8 °F86 %30.06 in1.0 miENE (60°)23.0 mph31.1 mphSnowLight Snow
2:00 PM20.0 °F17.0 °F81 %30.02 inENE (70°)16.1 mph
2:00 PM19.4 °F15.8 °F86 %30.02 in1.5 miENE (60°)19.6 mph31.1 mphSnowLight Snow
2:19 PM19.4 °F0.0 °F0.0 mi21.9 (2013°)31.1 mph0.00 inLight Snow70
3:00 PM19.4 °F17.6 °F93 %30.01 in0.8 miENE (70°)19.6 mph33.4 mphSnowLight Snow
3:23 PM19.4 °F0.0 °F0.0 mi21.9 (2013°)31.1 mph0.00 inLight Snow60
3:42 PM19.4 °F0.0 °F1.5 miENE (60°)23.0 mphSnowLight Snow
4:00 PM21.2 °F15.8 °F80 %29.98 in4.0 miENE (70°)19.6 mph33.4 mphSnowLight Snow Showers
4:31 PM21.2 °F0.0 °F1.2 miENE (60°)17.3 mph29.9 mphSnowLight Snow Showers
5:00 PM21.2 °F17.6 °F86 %29.95 in3.0 miENE (60°)17.3 mph28.8 mphSnowLight Snow Showers
5:00 PM22.0 °F18.0 °F77 %29.95 inENE (70°)13.8 mph
5:41 PM21.2 °F0.0 °F1.0 miENE (60°)18.4 mph29.9 mphSnowLight Snow Showers
6:00 PM21.2 °F17.6 °F86 %29.94 in0.5 miENE (60°)20.7 mph32.2 mphSnowLight Snow Showers
7:00 PM21.2 °F19.4 °F93 %29.93 in0.5 miENE (60°)18.4 mph25.3 mphSnowLight Snow Showers
8:00 PM21.2 °F19.4 °F93 %29.92 in0.5 miENE (60°)23.0 mph31.1 mphSnowLight Snow Showers
8:00 PM22.0 °F20.0 °F91 %29.92 inENE (70°)12.7 mph
9:00 PM21.2 °F19.4 °F93 %29.91 in0.5 miENE (70°)16.1 mph23.0 mphSnowLight Snow Showers
10:00 PM21.2 °F19.4 °F93 %29.89 in0.5 miENE (70°)16.1 mph24.2 mphSnowLight Snow
10:42 PM21.2 °F19.4 °F93 %0.0 mi15.0 (2013°)23.0 mph0.00 inLight Snow50
11:00 PM22.0 °F21.0 °F95 %29.87 inENE (70°)10.4 mph
11:00 PM21.2 °F19.4 °F93 %29.87 in1.0 miNE (50°)13.8 mph19.6 mphSnowLight Snow
Hourly data recorded from CYQB, located miles away from Quebec City, Quebec







STORIES FROM OUR PARTNERS